TimeCST,TemperatureF,Dew PointF,Humidity,Sea Level PressureIn,VisibilityMPH,Wind Direction,Wind SpeedMPH,Gust SpeedMPH,PrecipitationIn,Events,Conditions,WindDirDegrees,DateUTC
12:15 AM,75.7,72.0,88,30.01,7.0,SE,5.8,-,N/A,,Scattered Clouds,140,2013-11-22 06:15:00
12:35 AM,75.6,72.0,89,30.01,7.0,SSE,6.9,-,N/A,,Scattered Clouds,150,2013-11-22 06:35:00
12:55 AM,75.6,72.1,89,30.01,7.0,SSE,5.8,-,N/A,,Mostly Cloudy,150,2013-11-22 06:55:00
1:15 AM,75.7,72.1,89,30.01,7.0,SSE,4.6,-,N/A,,Overcast,160,2013-11-22 07:15:00
1:35 AM,75.6,72.1,89,30.00,7.0,SE,6.9,-,N/A,,Mostly Cloudy,140,2013-11-22 07:35:00
1:55 AM,75.6,72.1,89,30.00,7.0,SSE,4.6,-,N/A,,Mostly Cloudy,150,2013-11-22 07:55:00
2:15 AM,75.7,72.3,89,30.00,7.0,SE,4.6,-,N/A,,Overcast,140,2013-11-22 08:15:00
2:35 AM,75.6,72.1,89,30.00,7.0,SSE,8.1,-,N/A,,Overcast,150,2013-11-22 08:35:00
2:55 AM,75.9,72.5,89,29.99,7.0,SSE,8.1,-,N/A,,Overcast,160,2013-11-22 08:55:00
3:15 AM,75.6,72.1,89,29.99,7.0,SSE,5.8,-,N/A,,Overcast,150,2013-11-22 09:15:00
3:35 AM,75.4,72.1,90,29.99,7.0,SSE,4.6,-,N/A,,Overcast,150,2013-11-22 09:35:00
3:55 AM,75.2,72.0,90,29.99,7.0,SE,3.5,-,N/A,,Overcast,140,2013-11-22 09:55:00
4:15 AM,75.0,71.8,90,29.98,5.0,SE,4.6,-,N/A,,Mostly Cloudy,140,2013-11-22 10:15:00
4:35 AM,74.8,71.8,90,29.99,5.0,SE,3.5,-,N/A,,Mostly Cloudy,140,2013-11-22 10:35:00
4:55 AM,75.2,72.1,90,30.00,7.0,SE,4.6,-,N/A,,Overcast,140,2013-11-22 10:55:00
5:15 AM,75.4,72.1,90,30.00,5.0,SE,5.8,-,N/A,,Overcast,140,2013-11-22 11:15:00
5:35 AM,75.4,72.1,90,30.00,5.0,SE,5.8,-,N/A,,Overcast,140,2013-11-22 11:35:00
5:55 AM,75.0,72.0,90,30.01,5.0,SE,4.6,-,N/A,,Mostly Cloudy,140,2013-11-22 11:55:00
6:15 AM,74.7,71.8,91,30.02,5.0,SE,5.8,-,N/A,,Mostly Cloudy,130,2013-11-22 12:15:00
6:35 AM,74.7,71.6,90,30.02,5.0,SE,3.5,-,N/A,,Mostly Cloudy,140,2013-11-22 12:35:00
6:55 AM,74.7,71.6,90,30.03,7.0,ESE,3.5,-,N/A,,Overcast,120,2013-11-22 12:55:00
7:15 AM,74.5,71.4,90,30.04,7.0,SE,4.6,-,N/A,,Overcast,130,2013-11-22 13:15:00
7:35 AM,74.7,71.4,90,30.04,5.0,SE,3.5,-,N/A,,Mostly Cloudy,140,2013-11-22 13:35:00
7:55 AM,75.9,71.6,86,30.05,7.0,SE,5.8,-,N/A,,Scattered Clouds,130,2013-11-22 13:55:00
8:15 AM,77.2,71.6,83,30.05,5.0,ESE,5.8,-,N/A,,Haze,120,2013-11-22 14:15:00
8:35 AM,78.6,72.1,80,30.05,7.0,SE,6.9,-,N/A,,Scattered Clouds,140,2013-11-22 14:35:00
8:55 AM,79.7,72.3,78,30.06,5.0,SSE,8.1,-,N/A,,Haze,160,2013-11-22 14:55:00
9:15 AM,80.6,72.7,77,30.06,7.0,South,10.4,-,N/A,,Mostly Cloudy,170,2013-11-22 15:15:00
9:35 AM,82.2,72.5,72,30.06,7.0,South,11.5,-,N/A,,Mostly Cloudy,170,2013-11-22 15:35:00
9:55 AM,82.0,72.3,72,30.06,7.0,SSE,10.4,16.1,N/A,,Mostly Cloudy,150,2013-11-22 15:55:00
10:15 AM,83.3,72.1,69,30.06,7.0,SSE,9.2,-,N/A,,Mostly Cloudy,160,2013-11-22 16:15:00
10:35 AM,84.9,71.1,63,30.06,7.0,SSE,11.5,17.3,N/A,,Mostly Cloudy,160,2013-11-22 16:35:00
10:55 AM,84.9,71.4,64,30.06,7.0,SSE,8.1,-,N/A,,Mostly Cloudy,150,2013-11-22 16:55:00
11:15 AM,85.1,70.7,62,30.06,7.0,South,10.4,-,N/A,,Mostly Cloudy,170,2013-11-22 17:15:00
11:35 AM,85.5,70.0,60,30.06,4.0,South,11.5,16.1,N/A,,Haze,170,2013-11-22 17:35:00
11:55 AM,84.7,69.6,60,30.04,10.0,South,6.9,-,N/A,,Overcast,170,2013-11-22 17:55:00
12:15 PM,85.3,69.8,60,30.03,7.0,South,8.1,-,N/A,,Overcast,170,2013-11-22 18:15:00
12:35 PM,85.1,69.8,60,30.02,7.0,SSE,10.4,-,N/A,Rain,Light Rain,150,2013-11-22 18:35:00
12:55 PM,83.8,70.9,65,30.00,10.0,SSE,8.1,-,N/A,Rain,Light Rain,160,2013-11-22 18:55:00
1:15 PM,82.4,71.1,68,29.99,7.0,Calm,Calm,-,N/A,Rain,Light Rain,0,2013-11-22 19:15:00
1:35 PM,85.8,71.8,63,29.99,10.0,South,11.5,-,N/A,Thunderstorm,Overcast,180,2013-11-22 19:35:00
1:55 PM,82.6,70.7,67,29.98,7.0,SSE,15.0,19.6,N/A,Thunderstorm,Thunderstorm,160,2013-11-22 19:55:00
2:15 PM,76.3,71.4,85,29.99,4.0,East,4.6,-,0.12,Rain-Thunderstorm,Thunderstorms and Rain,80,2013-11-22 20:15:00
2:35 PM,63.1,59.0,86,30.05,10.0,North,26.5,38.0,0.12,Thunderstorm,Unknown,350,2013-11-22 20:35:00
2:55 PM,59.0,55.6,88,30.04,7.0,North,17.3,34.5,0.13,Thunderstorm,Thunderstorm,10,2013-11-22 20:55:00
3:15 PM,57.6,54.3,89,30.08,5.0,North,13.8,21.9,0.05,Rain-Thunderstorm,Heavy Thunderstorms and Rain,350,2013-11-22 21:15:00
3:35 PM,54.9,52.2,91,30.11,4.0,North,12.7,18.4,0.10,Rain-Thunderstorm,Heavy Thunderstorms and Rain,360,2013-11-22 21:35:00
3:55 PM,54.0,51.4,91,30.09,1.8,North,12.7,25.3,0.33,Rain-Thunderstorm,Heavy Thunderstorms and Rain,360,2013-11-22 21:55:00
4:15 PM,52.7,50.0,91,30.13,3.0,North,17.3,29.9,0.15,Rain-Thunderstorm,Thunderstorms and Rain,10,2013-11-22 22:15:00
4:35 PM,52.7,50.0,91,30.14,7.0,North,12.7,28.8,0.19,Rain-Thunderstorm,Light Thunderstorms and Rain,360,2013-11-22 22:35:00
4:55 PM,52.7,50.0,91,30.13,10.0,North,23.0,33.4,0.20,Rain-Thunderstorm,Rain,350,2013-11-22 22:55:00
5:15 PM,52.7,50.0,91,30.15,10.0,North,21.9,27.6,N/A,Rain-Thunderstorm,Light Thunderstorms and Rain,350,2013-11-22 23:15:00
5:35 PM,52.0,49.1,90,30.17,7.0,NNW,18.4,25.3,N/A,Thunderstorm,Thunderstorm,340,2013-11-22 23:35:00
5:55 PM,50.7,47.7,89,30.17,2.5,NNW,19.6,25.3,0.11,Rain-Thunderstorm,Heavy Thunderstorms and Rain,340,2013-11-22 23:55:00
6:15 PM,50.7,48.0,90,30.18,10.0,North,13.8,-,0.03,Rain-Thunderstorm,Rain,350,2013-11-23 00:15:00
6:35 PM,50.0,47.1,90,30.17,7.0,North,16.1,24.2,0.06,Rain-Thunderstorm,Thunderstorms and Rain,350,2013-11-23 00:35:00
6:55 PM,50.0,47.1,90,30.24,7.0,NNW,13.8,-,0.11,Rain-Thunderstorm,Thunderstorms and Rain,340,2013-11-23 00:55:00
7:15 PM,49.1,46.4,90,30.23,7.0,North,18.4,21.9,0.05,Rain-Thunderstorm,Heavy Thunderstorms and Rain,350,2013-11-23 01:15:00
7:35 PM,48.7,45.7,89,30.25,7.0,North,13.8,24.2,0.10,Rain-Thunderstorm,Heavy Thunderstorms and Rain,350,2013-11-23 01:35:00
7:55 PM,48.6,45.9,90,30.25,7.0,North,15.0,-,0.16,Rain-Thunderstorm,Heavy Thunderstorms and Rain,350,2013-11-23 01:55:00
8:15 PM,48.2,45.5,90,30.25,5.0,North,19.6,24.2,0.07,Rain,Heavy Rain,350,2013-11-23 02:15:00
8:35 PM,48.2,45.3,90,30.26,7.0,North,18.4,24.2,0.12,Rain,Rain,350,2013-11-23 02:35:00
8:55 PM,47.8,45.0,90,30.26,7.0,North,11.5,24.2,0.18,Rain,Rain,360,2013-11-23 02:55:00
9:15 PM,47.8,45.1,90,30.26,10.0,North,13.8,20.7,0.05,Rain,Rain,350,2013-11-23 03:15:00
9:35 PM,47.5,44.8,90,30.28,7.0,NNW,17.3,24.2,0.09,Rain,Rain,340,2013-11-23 03:35:00
9:55 PM,47.3,44.2,89,30.27,10.0,NNW,16.1,23.0,0.11,Rain-Thunderstorm,Light Thunderstorms and Rain,340,2013-11-23 03:55:00
10:15 PM,46.8,43.7,89,30.28,10.0,NNW,19.6,26.5,0.01,Rain,Light Rain,340,2013-11-23 04:15:00
10:35 PM,46.6,43.7,90,30.30,5.0,NNW,13.8,23.0,0.01,,Light Drizzle,340,2013-11-23 04:35:00
10:55 PM,46.4,43.7,90,30.30,2.5,NNW,19.6,26.5,0.01,Rain,Rain,340,2013-11-23 04:55:00
11:15 PM,46.4,43.9,91,30.30,3.0,NNW,11.5,18.4,N/A,,Overcast,330,2013-11-23 05:15:00
11:35 PM,45.7,43.0,90,30.31,3.0,NNW,19.6,24.2,N/A,Rain,Light Rain,330,2013-11-23 05:35:00
11:55 PM,45.3,42.8,91,30.32,5.0,NNW,17.3,23.0,N/A,,Overcast,340,2013-11-23 05:55:00